Montreal Mirabel, Quebec

8:58 PM EDT on September 30, 2016 (GMT -0400)
Montreal International (Mirabel)

Weather History for CYMX - September, 2014

Change the Weather History Date:

Monday, September 1, 2014

  Actual Average Record
Temperature  
Mean Temperature 70 °F -  
Max Temperature 77 °F 72 °F 89 °F (2010)
Min Temperature 64 °F 52 °F 46 °F (1999)
Cooling Degree Days 6    
Growing Degree Days 20 (Base 50)    
Moisture  
Dew Point 65 °F    
Average Humidity 89    
Maximum Humidity 100    
Minimum Humidity 65    
Precipitation  
Precipitation 0.00 in - - ()
Sea Level Pressure  
Sea Level Pressure 29.92 in    
Wind  
Wind Speed 4 mph ()    
Max Wind Speed 9 mph    
Max Gust Speed -    
Visibility 8.5 miles    
Events      
Averages and records for this station are not official NWS values.
T = Trace of Precipitation, MM = Missing Value Source: Averaged Metar Reports

Daily Weather History Graph

Daily Weather History Graph

Search for Another Location

Airport or City:

Trip Planner

Search our weather history database for the weather conditions in past years. The results will help you decide how hot, cold, wet, or windy it might be!

Date:

Astronomy

Sep. 01, 2014 Rise Set
Actual Time 6:17 AM EDT 7:34 PM EDT
Civil Twilight 5:46 AM EDT 8:04 PM EDT
Nautical Twilight 5:09 AM EDT 8:41 PM EDT
Astronomical Twilight 4:30 AM EDT 9:20 PM EDT
Moon 1:20 PM EDT 11:12 PM EDT
Length of Visible Light 14h 18m
Length of Day
13h 16m
Waxing Crescent, 42% of the Moon is Illuminated
Sep 1
Waxing Crescent
Sep 2
First Quarter
Sep 8
Full
Sep 15
Last Quarter
Sep 24
New

Hourly Weather History & Observations

Time (EDT) Temp. Dew Point Humidity Pressure Visibility Wind Dir Wind Speed Gust Speed Precip Events Conditions
12:00 AM 68.0 °F 66.2 °F 94% 29.89 in 15.0 mi West 6.9 mph - N/A   Overcast
1:00 AM 68.0 °F 66.2 °F 94% 29.89 in 15.0 mi Variable 2.3 mph - N/A   Overcast
2:00 AM 66.2 °F 66.2 °F 100% 29.89 in 15.0 mi SW 4.6 mph - N/A   Mostly Cloudy
2:34 AM 66.2 °F 66.2 °F 100% 29.89 in 15.0 mi WSW 5.8 mph - N/A   Mostly Cloudy
3:00 AM 66.2 °F 66.2 °F 100% 29.90 in 10.0 mi WSW 3.5 mph - N/A   Mostly Cloudy
4:00 AM 66.2 °F 66.2 °F 100% 29.91 in 5.0 mi West 4.6 mph - N/A   Overcast
4:51 AM 64.4 °F 64.4 °F 100% 29.93 in 8.0 mi SW 3.5 mph - N/A   Light Drizzle
5:00 AM 64.4 °F 64.4 °F 100% 29.93 in 8.0 mi Variable 2.3 mph - N/A   Light Drizzle
6:00 AM 64.4 °F 64.4 °F 100% 29.94 in 1.5 mi SSW 3.5 mph - N/A   Overcast
7:00 AM 66.2 °F 64.4 °F 94% 29.95 in 2.0 mi SW 4.6 mph - N/A   Overcast
8:00 AM 66.2 °F 66.2 °F 100% 29.95 in 3.0 mi SW 3.5 mph - N/A   Overcast
9:00 AM 68.0 °F 66.2 °F 94% 29.95 in 5.0 mi WSW 4.6 mph - N/A   Overcast
10:00 AM 68.0 °F 66.2 °F 94% 29.96 in 25.0 mi WSW 5.8 mph - N/A   Overcast
11:00 AM 71.6 °F 66.2 °F 83% 29.95 in 25.0 mi West 4.6 mph - N/A   Overcast
12:00 PM 71.6 °F 66.2 °F 83% 29.95 in 45.0 mi SSW 5.8 mph - N/A   Overcast
1:00 PM 71.6 °F 64.4 °F 78% 29.95 in 45.0 mi SW 8.1 mph - N/A   Overcast
2:00 PM 73.4 °F 64.4 °F 73% 29.94 in 45.0 mi SW 4.6 mph - N/A   Mostly Cloudy
3:00 PM 75.2 °F 64.4 °F 69% 29.93 in 45.0 mi West 6.9 mph - N/A   Mostly Cloudy
4:00 PM 77.0 °F 64.4 °F 65% 29.91 in 45.0 mi SSW 9.2 mph - N/A   Mostly Cloudy
5:00 PM 77.0 °F 64.4 °F 65% 29.90 in 45.0 mi SSW 4.6 mph - N/A   Scattered Clouds
6:00 PM 77.0 °F 64.4 °F 65% 29.89 in 45.0 mi WSW 3.5 mph - N/A   Partly Cloudy
8:00 PM 68.0 °F 66.2 °F 94% 29.88 in 25.0 mi East 2.3 mph - N/A   Partly Cloudy
9:00 PM 68.0 °F 64.4 °F 88% 29.88 in 25.0 mi Calm Calm - N/A   Partly Cloudy
10:00 PM 64.4 °F 64.4 °F 100% 29.89 in 25.0 mi Calm Calm - N/A   Clear
11:00 PM 64.4 °F 62.6 °F 94% 29.88 in 25.0 mi Calm Calm - N/A   Clear